Terminal Aerodrome Forecast
Issued by NWS

Home | Current Version | Previous Version | Text Only | Print | Product List | Glossary Off
Versions: 1 2 3 4 5 6 7 8 9 10 11 12 13 14 15 16 17 18 19 20 21 22 23 24 25 26 27 28 29 30 31

000
FTUS45 KGGW 201100
TAFGDV
TAF
KGDV 201140Z 2012/2112 19007KT P6SM VCSH OVC130
     FM201800 29010KT P6SM VCTS BKN080CB
     FM210000 VRB05KT P6SM SCT035
      AMD LTD TO CLD VIS AND WIND=

USA.gov is the U.S. government's official web portal to all federal, state and local government web resources and services.